Time,TemperatureF,DewpointF,PressureIn,WindDirection,WindDirectionDegrees,WindSpeedMPH,WindSpeedGustMPH,Humidity,HourlyPrecipIn,Conditions,Clouds,dailyrainin,SoftwareType,DateUTC
2013-03-29 00:00:00,34.8,23.1,30.23,WSW,254,0.0,0.0,62,0.00,CLR,,0.00,WeatherDisplay:10.37,2013-03-29 04:00:00,
2013-03-29 00:01:00,34.7,23.0,30.23,WSW,254,2.3,2.3,62,0.00,CLR,,0.00,WeatherDisplay:10.37,2013-03-29 04:01:00,
2013-03-29 00:02:00,34.7,23.0,30.24,WSW,254,1.1,1.1,62,0.00,CLR,,0.00,WeatherDisplay:10.37,2013-03-29 04:02:00,
2013-03-29 00:07:00,34.8,23.1,30.23,WSW,254,3.5,3.5,62,0.00,CLR,,0.00,WeatherDisplay:10.37,2013-03-29 04:07:00,
2013-03-29 00:12:00,34.8,23.1,30.24,WSW,254,0.0,0.0,62,0.00,CLR,,0.00,WeatherDisplay:10.37,2013-03-29 04:12:00,
2013-03-29 00:17:00,34.5,22.8,30.23,WSW,255,0.0,0.0,62,0.00,CLR,,0.00,WeatherDisplay:10.37,2013-03-29 04:17:00,
2013-03-29 00:22:00,34.4,23.1,30.23,WSW,254,3.5,0.0,63,0.00,CLR,,0.00,WeatherDisplay:10.37,2013-03-29 04:22:00,
2013-03-29 00:27:00,34.1,23.2,30.23,WSW,255,1.1,1.1,64,0.00,CLR,,0.00,WeatherDisplay:10.37,2013-03-29 04:27:00,
2013-03-29 00:32:00,33.8,22.9,30.23,WSW,254,0.0,0.0,64,0.00,CLR,,0.00,WeatherDisplay:10.37,2013-03-29 04:32:00,
2013-03-29 00:37:00,33.8,23.3,30.23,WSW,254,0.0,0.0,65,0.00,CLR,,0.00,WeatherDisplay:10.37,2013-03-29 04:37:00,
2013-03-29 00:42:00,33.4,22.9,30.23,WSW,254,0.0,0.0,65,0.00,CLR,,0.00,WeatherDisplay:10.37,2013-03-29 04:42:00,
2013-03-29 00:47:00,33.2,23.1,30.23,WSW,253,0.0,0.0,66,0.00,CLR,,0.00,WeatherDisplay:10.37,2013-03-29 04:47:00,
2013-03-29 00:52:00,33.0,22.9,30.23,WSW,254,0.0,0.0,66,0.00,CLR,,0.00,WeatherDisplay:10.37,2013-03-29 04:52:00,
2013-03-29 00:57:00,32.6,22.8,30.23,WSW,254,2.0,2.0,67,0.00,CLR,,0.00,WeatherDisplay:10.37,2013-03-29 04:57:00,
2013-03-29 01:02:00,32.4,22.7,30.23,WSW,254,0.0,0.0,67,0.00,CLR,,0.00,WeatherDisplay:10.37,2013-03-29 05:02:00,
2013-03-29 01:07:00,32.2,22.8,30.23,WSW,253,0.0,0.0,68,0.00,CLR,,0.00,WeatherDisplay:10.37,2013-03-29 05:07:00,
2013-03-29 01:12:00,32.0,22.6,30.23,WSW,253,1.1,1.1,68,0.00,CLR,,0.00,WeatherDisplay:10.37,2013-03-29 05:12:00,
2013-03-29 01:17:00,31.8,22.8,30.23,WSW,254,0.0,0.0,69,0.00,CLR,,0.00,WeatherDisplay:10.37,2013-03-29 05:17:00,
2013-03-29 01:22:00,31.7,22.7,30.23,WSW,254,0.0,0.0,69,0.00,CLR,,0.00,WeatherDisplay:10.37,2013-03-29 05:22:00,
2013-03-29 01:27:00,31.7,22.7,30.23,WSW,253,1.1,1.1,69,0.00,CLR,,0.00,WeatherDisplay:10.37,2013-03-29 05:27:00,
2013-03-29 01:32:00,31.6,22.6,30.23,WSW,253,0.0,0.0,69,0.00,CLR,,0.00,WeatherDisplay:10.37,2013-03-29 05:32:00,
2013-03-29 01:37:00,31.5,22.8,30.23,WSW,253,0.0,0.0,70,0.00,CLR,,0.00,WeatherDisplay:10.37,2013-03-29 05:37:00,
2013-03-29 01:43:00,31.4,22.4,30.23,WSW,254,0.0,0.0,69,0.00,CLR,,0.00,WeatherDisplay:10.37,2013-03-29 05:43:00,
2013-03-29 01:48:00,31.4,22.4,30.23,WSW,254,0.0,0.0,69,0.00,CLR,,0.00,WeatherDisplay:10.37,2013-03-29 05:48:00,
2013-03-29 01:53:00,31.5,22.5,30.23,WSW,254,1.1,0.0,69,0.00,CLR,,0.00,WeatherDisplay:10.37,2013-03-29 05:53:00,
2013-03-29 01:58:00,31.2,22.5,30.23,WSW,254,0.0,0.9,70,0.00,CLR,,0.00,WeatherDisplay:10.37,2013-03-29 05:58:00,
2013-03-29 02:03:00,31.1,22.5,30.23,WSW,254,0.0,0.0,70,0.00,CLR,,0.00,WeatherDisplay:10.37,2013-03-29 06:03:00,
2013-03-29 02:08:00,31.2,22.5,30.23,WSW,254,2.3,0.0,70,0.00,CLR,,0.00,WeatherDisplay:10.37,2013-03-29 06:08:00,
2013-03-29 02:13:00,31.2,22.2,30.23,WSW,254,0.0,0.0,69,0.00,CLR,,0.00,WeatherDisplay:10.37,2013-03-29 06:13:00,
2013-03-29 02:18:00,31.1,22.5,30.23,WSW,254,0.0,0.0,70,0.00,CLR,,0.00,WeatherDisplay:10.37,2013-03-29 06:18:00,
2013-03-29 02:23:00,31.0,22.4,30.23,WSW,254,0.0,0.0,70,0.00,CLR,,0.00,WeatherDisplay:10.37,2013-03-29 06:23:00,
2013-03-29 02:28:00,30.8,22.2,30.24,WSW,254,0.0,0.0,70,0.00,CLR,,0.00,WeatherDisplay:10.37,2013-03-29 06:28:00,
2013-03-29 02:33:00,30.6,22.3,30.23,WSW,254,0.0,0.0,71,0.00,CLR,,0.00,WeatherDisplay:10.37,2013-03-29 06:33:00,
2013-03-29 02:38:00,30.5,22.2,30.23,WSW,254,0.0,0.0,71,0.00,CLR,,0.00,WeatherDisplay:10.37,2013-03-29 06:38:00,
2013-03-29 02:43:00,30.5,21.9,30.23,WSW,254,0.0,0.0,70,0.00,CLR,,0.00,WeatherDisplay:10.37,2013-03-29 06:43:00,
2013-03-29 02:48:00,30.5,22.2,30.24,WSW,254,0.0,0.0,71,0.00,CLR,,0.00,WeatherDisplay:10.37,2013-03-29 06:48:00,
2013-03-29 02:53:00,30.2,21.9,30.24,WSW,254,0.0,0.0,71,0.00,CLR,,0.00,WeatherDisplay:10.37,2013-03-29 06:53:00,
2013-03-29 02:58:00,29.8,21.9,30.23,WSW,254,0.0,0.0,72,0.00,CLR,,0.00,WeatherDisplay:10.37,2013-03-29 06:58:00,
2013-03-29 03:03:00,29.3,21.4,30.23,WSW,254,0.0,0.0,72,0.00,CLR,,0.00,WeatherDisplay:10.37,2013-03-29 07:03:00,
2013-03-29 03:09:00,29.0,21.4,30.23,WSW,254,0.0,0.0,73,0.00,CLR,,0.00,WeatherDisplay:10.37,2013-03-29 07:09:00,
2013-03-29 03:14:00,28.8,21.6,30.24,WSW,254,0.0,0.0,74,0.00,CLR,,0.00,WeatherDisplay:10.37,2013-03-29 07:14:00,
2013-03-29 03:19:00,28.5,21.3,30.24,WSW,254,0.0,0.0,74,0.00,CLR,,0.00,WeatherDisplay:10.37,2013-03-29 07:19:00,
2013-03-29 03:24:00,28.2,21.3,30.24,WSW,254,0.0,0.0,75,0.00,CLR,,0.00,WeatherDisplay:10.37,2013-03-29 07:24:00,
2013-03-29 03:29:00,27.9,21.3,30.24,WSW,254,0.0,0.0,76,0.00,CLR,,0.00,WeatherDisplay:10.37,2013-03-29 07:29:00,
2013-03-29 03:34:00,27.6,21.6,30.23,WSW,254,0.0,0.0,78,0.00,CLR,,0.00,WeatherDisplay:10.37,2013-03-29 07:34:00,
2013-03-29 03:39:00,27.5,21.5,30.24,WSW,254,0.0,0.0,78,0.00,CLR,,0.00,WeatherDisplay:10.37,2013-03-29 07:39:00,
2013-03-29 03:44:00,27.5,21.5,30.23,WSW,254,1.1,0.0,78,0.00,CLR,,0.00,WeatherDisplay:10.37,2013-03-29 07:44:00,
2013-03-29 03:49:00,27.7,21.4,30.23,WSW,254,2.3,2.3,77,0.00,CLR,,0.00,WeatherDisplay:10.37,2013-03-29 07:49:00,
2013-03-29 03:54:00,27.8,21.2,30.23,WSW,254,0.0,0.0,76,0.00,CLR,,0.00,WeatherDisplay:10.37,2013-03-29 07:54:00,
2013-03-29 03:59:00,27.8,21.2,30.23,WSW,254,0.0,0.0,76,0.00,CLR,,0.00,WeatherDisplay:10.37,2013-03-29 07:59:00,
2013-03-29 04:04:00,27.9,21.3,30.23,WSW,254,0.0,0.0,76,0.00,CLR,,0.00,WeatherDisplay:10.37,2013-03-29 08:04:00,
2013-03-29 04:09:00,28.0,21.1,30.23,WSW,254,0.0,0.0,75,0.00,CLR,,0.00,WeatherDisplay:10.37,2013-03-29 08:09:00,
2013-03-29 04:14:00,27.9,21.0,30.23,WSW,254,0.0,0.0,75,0.00,CLR,,0.00,WeatherDisplay:10.37,2013-03-29 08:14:00,
2013-03-29 04:19:00,27.8,20.9,30.23,WSW,254,0.0,0.0,75,0.00,CLR,,0.00,WeatherDisplay:10.37,2013-03-29 08:19:00,
2013-03-29 04:24:00,27.6,21.0,30.23,WSW,254,0.0,0.0,76,0.00,CLR,,0.00,WeatherDisplay:10.37,2013-03-29 08:24:00,
2013-03-29 04:29:00,27.4,20.8,30.23,WSW,254,0.0,0.0,76,0.00,CLR,,0.00,WeatherDisplay:10.37,2013-03-29 08:29:00,
2013-03-29 04:34:00,27.6,21.0,30.23,WSW,254,0.0,0.0,76,0.00,CLR,,0.00,WeatherDisplay:10.37,2013-03-29 08:34:00,
2013-03-29 04:39:00,27.7,21.1,30.23,WSW,254,0.0,0.0,76,0.00,CLR,,0.00,WeatherDisplay:10.37,2013-03-29 08:39:00,
2013-03-29 04:44:00,27.6,21.0,30.23,WSW,254,0.0,0.0,76,0.00,CLR,,0.00,WeatherDisplay:10.37,2013-03-29 08:44:00,
2013-03-29 04:49:00,27.3,21.0,30.24,WSW,254,0.0,0.0,77,0.00,CLR,,0.00,WeatherDisplay:10.37,2013-03-29 08:49:00,
2013-03-29 04:54:00,27.0,21.1,30.24,WSW,254,0.0,0.0,78,0.00,CLR,,0.00,WeatherDisplay:10.37,2013-03-29 08:54:00,
2013-03-29 04:59:00,26.9,21.0,30.24,WSW,254,0.0,0.0,78,0.00,CLR,,0.00,WeatherDisplay:10.37,2013-03-29 08:59:00,
2013-03-29 05:04:00,27.0,21.1,30.24,WSW,254,0.0,0.0,78,0.00,CLR,,0.00,WeatherDisplay:10.37,2013-03-29 09:04:00,
2013-03-29 05:09:00,27.0,21.1,30.24,WSW,254,0.0,0.0,78,0.00,CLR,,0.00,WeatherDisplay:10.37,2013-03-29 09:09:00,
2013-03-29 05:14:00,26.9,21.0,30.23,WSW,254,0.0,0.0,78,0.00,CLR,,0.00,WeatherDisplay:10.37,2013-03-29 09:14:00,
2013-03-29 05:19:00,26.9,21.0,30.23,WSW,254,0.0,0.0,78,0.00,CLR,,0.00,WeatherDisplay:10.37,2013-03-29 09:19:00,
2013-03-29 05:24:00,26.9,21.0,30.23,WSW,254,0.0,0.0,78,0.00,CLR,,0.00,WeatherDisplay:10.37,2013-03-29 09:24:00,
2013-03-29 05:29:00,26.8,20.9,30.23,WSW,254,0.0,0.0,78,0.00,CLR,,0.00,WeatherDisplay:10.37,2013-03-29 09:29:00,
2013-03-29 05:34:00,26.8,20.9,30.23,WSW,254,0.0,0.0,78,0.00,CLR,,0.00,WeatherDisplay:10.37,2013-03-29 09:34:00,
2013-03-29 05:39:00,26.6,22.7,30.23,WSW,254,0.0,0.1,85,0.00,CLR,,0.00,WeatherDisplay:10.37,2013-03-29 09:39:00,
2013-03-29 05:44:00,26.8,20.9,30.23,WSW,254,1.1,1.1,78,0.00,CLR,,0.00,WeatherDisplay:10.37,2013-03-29 09:44:00,
2013-03-29 05:49:00,27.0,21.1,30.23,WSW,254,0.0,0.0,78,0.00,CLR,,0.00,WeatherDisplay:10.37,2013-03-29 09:49:00,
2013-03-29 05:54:00,27.1,21.2,30.23,WSW,254,0.0,0.0,78,0.00,CLR,,0.00,WeatherDisplay:10.37,2013-03-29 09:54:00,
2013-03-29 05:59:00,27.1,21.2,30.23,WSW,254,2.3,2.3,78,0.00,CLR,,0.00,WeatherDisplay:10.37,2013-03-29 09:59:00,
2013-03-29 06:04:00,27.2,20.9,30.23,WSW,254,0.0,0.0,77,0.00,CLR,,0.00,WeatherDisplay:10.37,2013-03-29 10:04:00,
2013-03-29 06:09:00,27.3,21.0,30.23,WSW,254,0.0,0.0,77,0.00,CLR,,0.00,WeatherDisplay:10.37,2013-03-29 10:09:00,
2013-03-29 06:14:00,27.2,20.9,30.23,WSW,254,0.0,0.0,77,0.00,CLR,,0.00,WeatherDisplay:10.37,2013-03-29 10:14:00,
2013-03-29 06:19:00,27.1,20.8,30.23,WSW,254,0.0,0.0,77,0.00,CLR,,0.00,WeatherDisplay:10.37,2013-03-29 10:19:00,
2013-03-29 06:24:00,27.0,20.7,30.23,WSW,254,1.1,0.0,77,0.00,CLR,,0.00,WeatherDisplay:10.37,2013-03-29 10:24:00,
2013-03-29 06:29:00,26.7,20.8,30.23,WSW,254,0.0,0.0,78,0.00,CLR,,0.00,WeatherDisplay:10.37,2013-03-29 10:29:00,
2013-03-29 06:34:00,26.2,20.6,30.23,WSW,254,0.0,0.0,79,0.00,CLR,,0.00,WeatherDisplay:10.37,2013-03-29 10:34:00,
2013-03-29 06:39:00,25.9,20.6,30.23,WSW,254,1.1,1.1,80,0.00,CLR,,0.00,WeatherDisplay:10.37,2013-03-29 10:39:00,
2013-03-29 06:44:00,25.7,20.4,30.23,WSW,254,0.0,0.0,80,0.00,CLR,,0.00,WeatherDisplay:10.37,2013-03-29 10:44:00,
2013-03-29 06:49:00,25.8,20.5,30.23,WSW,254,3.5,3.5,80,0.00,CLR,,0.00,WeatherDisplay:10.37,2013-03-29 10:49:00,
2013-03-29 06:54:00,26.1,20.8,30.23,WSW,254,0.0,0.0,80,0.00,CLR,,0.00,WeatherDisplay:10.37,2013-03-29 10:54:00,
2013-03-29 06:59:00,26.1,20.5,30.23,WSW,254,0.0,0.0,79,0.00,CLR,,0.00,WeatherDisplay:10.37,2013-03-29 10:59:00,
2013-03-29 07:04:00,26.2,20.6,30.23,WSW,254,0.0,0.0,79,0.00,CLR,,0.00,WeatherDisplay:10.37,2013-03-29 11:04:00,
2013-03-29 07:09:00,26.2,20.6,30.24,WSW,254,2.3,2.3,79,0.00,CLR,,0.00,WeatherDisplay:10.37,2013-03-29 11:09:00,
2013-03-29 07:14:00,26.2,20.6,30.24,WSW,254,1.1,1.1,79,0.00,CLR,,0.00,WeatherDisplay:10.37,2013-03-29 11:14:00,
2013-03-29 07:19:00,26.0,20.4,30.24,West,263,0.0,0.0,79,0.00,CLR,,0.00,WeatherDisplay:10.37,2013-03-29 11:19:00,
2013-03-29 07:24:00,25.9,20.6,30.24,West,263,0.0,0.0,80,0.00,CLR,,0.00,WeatherDisplay:10.37,2013-03-29 11:24:00,
2013-03-29 07:29:00,25.9,20.6,30.24,West,263,0.0,0.0,80,0.00,CLR,,0.00,WeatherDisplay:10.37,2013-03-29 11:29:00,
2013-03-29 07:34:00,25.9,20.6,30.24,West,263,0.0,0.0,80,0.00,CLR,,0.00,WeatherDisplay:10.37,2013-03-29 11:34:00,
2013-03-29 07:39:00,26.0,20.7,30.24,West,263,0.0,0.0,80,0.00,CLR,,0.00,WeatherDisplay:10.37,2013-03-29 11:39:00,
2013-03-29 07:44:00,26.0,20.7,30.24,West,263,0.0,0.0,80,0.00,CLR,,0.00,WeatherDisplay:10.37,2013-03-29 11:44:00,
2013-03-29 07:49:00,25.9,20.6,30.24,West,263,0.0,0.0,80,0.00,CLR,,0.00,WeatherDisplay:10.37,2013-03-29 11:49:00,
2013-03-29 07:54:00,25.8,20.8,30.24,West,263,0.0,0.0,81,0.00,CLR,,0.00,WeatherDisplay:10.37,2013-03-29 11:54:00,
2013-03-29 07:59:00,25.8,20.8,30.24,West,263,0.0,0.0,81,0.00,CLR,,0.00,WeatherDisplay:10.37,2013-03-29 11:59:00,
2013-03-29 08:04:00,25.9,20.9,30.24,West,263,0.0,0.0,81,0.00,CLR,,0.00,WeatherDisplay:10.37,2013-03-29 12:04:00,
2013-03-29 08:09:00,26.2,21.2,30.24,West,263,2.3,0.0,81,0.00,CLR,,0.00,WeatherDisplay:10.37,2013-03-29 12:09:00,
2013-03-29 08:14:00,26.5,21.7,30.24,West,263,0.0,0.0,82,0.00,CLR,,0.00,WeatherDisplay:10.37,2013-03-29 12:14:00,
2013-03-29 08:19:00,26.6,21.8,30.24,West,263,0.0,0.0,82,0.00,CLR,,0.00,WeatherDisplay:10.37,2013-03-29 12:19:00,
2013-03-29 08:24:00,27.0,21.9,30.25,West,263,1.0,0.0,81,0.00,CLR,,0.00,WeatherDisplay:10.37,2013-03-29 12:24:00,
2013-03-29 08:29:00,27.5,22.1,30.25,West,263,0.0,0.0,80,0.00,CLR,,0.00,WeatherDisplay:10.37,2013-03-29 12:29:00,
2013-03-29 08:34:00,28.1,22.4,30.25,West,263,1.1,1.1,79,0.00,CLR,,0.00,WeatherDisplay:10.37,2013-03-29 12:34:00,
2013-03-29 08:39:00,28.7,23.0,30.25,West,263,1.1,1.1,79,0.00,CLR,,0.00,WeatherDisplay:10.37,2013-03-29 12:39:00,
2013-03-29 08:44:00,29.3,23.0,30.25,West,263,1.1,0.0,77,0.00,CLR,,0.00,WeatherDisplay:10.37,2013-03-29 12:44:00,
2013-03-29 08:49:00,29.8,23.5,30.25,West,262,0.0,0.5,77,0.00,CLR,,0.00,WeatherDisplay:10.37,2013-03-29 12:49:00,
2013-03-29 08:54:00,30.5,23.5,30.25,West,262,1.1,1.1,75,0.00,CLR,,0.00,WeatherDisplay:10.37,2013-03-29 12:54:00,
2013-03-29 08:59:00,31.2,23.9,30.25,West,263,3.5,0.0,74,0.00,CLR,,0.00,WeatherDisplay:10.37,2013-03-29 12:59:00,
2013-03-29 09:04:00,31.9,24.2,30.25,West,263,2.0,2.0,73,0.00,CLR,,0.00,WeatherDisplay:10.37,2013-03-29 13:04:00,
2013-03-29 09:09:00,32.5,24.5,30.25,West,261,3.0,3.0,72,0.00,CLR,,0.00,WeatherDisplay:10.37,2013-03-29 13:09:00,
2013-03-29 09:14:00,33.0,23.9,30.25,WSW,255,3.5,3.5,69,0.00,CLR,,0.00,WeatherDisplay:10.37,2013-03-29 13:14:00,
2013-03-29 09:19:00,33.5,24.1,30.25,WSW,253,4.0,4.0,68,0.00,CLR,,0.00,WeatherDisplay:10.37,2013-03-29 13:19:00,
2013-03-29 09:24:00,34.0,24.2,30.25,WSW,253,1.1,1.1,67,0.00,CLR,,0.00,WeatherDisplay:10.37,2013-03-29 13:24:00,
2013-03-29 09:29:00,34.4,24.2,30.25,WSW,252,3.5,3.5,66,0.00,CLR,,0.00,WeatherDisplay:10.37,2013-03-29 13:29:00,
2013-03-29 09:34:00,34.7,24.1,30.25,WSW,249,4.6,4.6,65,0.00,CLR,,0.00,WeatherDisplay:10.37,2013-03-29 13:34:00,
2013-03-29 09:39:00,35.1,24.5,30.25,WSW,248,1.1,0.0,65,0.00,CLR,,0.00,WeatherDisplay:10.37,2013-03-29 13:39:00,
2013-03-29 09:44:00,35.8,24.4,30.25,WSW,250,3.5,3.5,63,0.00,CLR,,0.00,WeatherDisplay:10.37,2013-03-29 13:44:00,
2013-03-29 09:49:00,36.5,24.7,30.25,WSW,249,3.5,3.5,62,0.00,CLR,,0.00,WeatherDisplay:10.37,2013-03-29 13:49:00,
2013-03-29 09:54:00,36.8,23.4,30.25,WSW,248,3.5,3.5,58,0.00,CLR,,0.00,WeatherDisplay:10.37,2013-03-29 13:54:00,
2013-03-29 09:59:00,37.0,24.0,30.25,WSW,251,2.3,0.0,59,0.00,CLR,,0.00,WeatherDisplay:10.37,2013-03-29 13:59:00,
2013-03-29 10:04:00,37.5,23.6,30.25,WSW,252,3.5,3.5,57,0.00,CLR,,0.00,WeatherDisplay:10.37,2013-03-29 14:04:00,
2013-03-29 10:09:00,37.9,22.7,30.25,West,275,3.5,0.0,54,0.00,CLR,,0.00,WeatherDisplay:10.37,2013-03-29 14:09:00,
2013-03-29 10:14:00,38.3,23.1,30.25,West,276,1.1,1.1,54,0.00,CLR,,0.00,WeatherDisplay:10.37,2013-03-29 14:14:00,
2013-03-29 10:19:00,39.0,24.2,30.24,West,276,0.0,0.0,55,0.00,CLR,,0.00,WeatherDisplay:10.37,2013-03-29 14:19:00,
2013-03-29 10:24:00,39.8,23.1,30.24,West,277,3.5,3.5,51,0.00,CLR,,0.00,WeatherDisplay:10.37,2013-03-29 14:24:00,
2013-03-29 10:29:00,39.9,22.7,30.24,NW,313,3.5,3.5,50,0.00,CLR,,0.00,WeatherDisplay:10.37,2013-03-29 14:29:00,
2013-03-29 10:34:00,40.6,23.4,30.24,West,271,1.1,1.3,50,0.00,CLR,,0.00,WeatherDisplay:10.37,2013-03-29 14:34:00,
2013-03-29 10:39:00,40.9,22.7,30.24,West,269,2.3,2.3,48,0.00,CLR,,0.00,WeatherDisplay:10.37,2013-03-29 14:39:00,
2013-03-29 10:44:00,41.1,21.9,30.25,West,261,5.8,5.8,46,0.00,CLR,,0.00,WeatherDisplay:10.37,2013-03-29 14:44:00,
2013-03-29 10:49:00,41.1,22.9,30.25,West,260,0.0,0.1,48,0.00,CLR,,0.00,WeatherDisplay:10.37,2013-03-29 14:49:00,
2013-03-29 10:54:00,41.7,22.4,30.25,West,260,1.1,1.2,46,0.00,CLR,,0.00,WeatherDisplay:10.37,2013-03-29 14:54:00,
2013-03-29 10:59:00,41.9,22.6,30.24,West,264,3.5,3.5,46,0.00,CLR,,0.00,WeatherDisplay:10.37,2013-03-29 14:59:00,
2013-03-29 11:04:00,42.3,23.0,30.24,WSW,239,2.3,2.3,46,0.00,CLR,,0.00,WeatherDisplay:10.37,2013-03-29 15:04:00,
2013-03-29 11:09:00,42.5,22.6,30.24,West,262,2.3,0.0,45,0.00,CLR,,0.00,WeatherDisplay:10.37,2013-03-29 15:09:00,
2013-03-29 11:14:00,43.3,22.8,30.24,West,262,3.5,3.5,44,0.00,CLR,,0.00,WeatherDisplay:10.37,2013-03-29 15:14:00,
2013-03-29 11:19:00,44.1,22.4,30.24,WNW,290,3.5,3.5,42,0.00,CLR,,0.00,WeatherDisplay:10.37,2013-03-29 15:19:00,
2013-03-29 11:24:00,43.8,22.2,30.24,WSW,246,2.0,2.0,42,0.00,CLR,,0.00,WeatherDisplay:10.37,2013-03-29 15:24:00,
2013-03-29 11:29:00,43.9,22.8,30.24,West,259,4.6,4.6,43,0.00,CLR,,0.00,WeatherDisplay:10.37,2013-03-29 15:29:00,
2013-03-29 11:34:00,44.3,22.1,30.24,NW,305,1.1,1.1,41,0.00,CLR,,0.00,WeatherDisplay:10.37,2013-03-29 15:34:00,
2013-03-29 11:39:00,45.4,23.0,30.24,NW,306,3.5,3.5,41,0.00,CLR,,0.00,WeatherDisplay:10.37,2013-03-29 15:39:00,
2013-03-29 11:44:00,45.7,23.3,30.24,NW,313,1.1,1.1,41,0.00,CLR,,0.00,WeatherDisplay:10.37,2013-03-29 15:44:00,
2013-03-29 11:49:00,45.8,22.8,30.24,NW,315,3.5,0.0,40,0.00,CLR,,0.00,WeatherDisplay:10.37,2013-03-29 15:49:00,
2013-03-29 11:54:00,45.9,22.3,30.24,SW,236,5.8,5.8,39,0.00,CLR,,0.00,WeatherDisplay:10.37,2013-03-29 15:54:00,
2013-03-29 11:59:00,45.6,22.0,30.24,WSW,245,5.8,5.8,39,0.00,CLR,,0.00,WeatherDisplay:10.37,2013-03-29 15:59:00,
2013-03-29 12:04:00,45.9,23.5,30.24,WNW,290,5.0,5.0,41,0.00,CLR,,0.00,WeatherDisplay:10.37,2013-03-29 16:04:00,
2013-03-29 12:09:00,46.1,22.5,30.23,SW,234,5.8,5.8,39,0.00,CLR,,0.00,WeatherDisplay:10.37,2013-03-29 16:09:00,
2013-03-29 12:14:00,46.9,23.2,30.23,NNW,327,5.8,5.8,39,0.00,CLR,,0.00,WeatherDisplay:10.37,2013-03-29 16:14:00,
2013-03-29 12:19:00,46.8,23.7,30.23,NNE,15,3.5,3.5,40,0.00,CLR,,0.00,WeatherDisplay:10.37,2013-03-29 16:19:00,
2013-03-29 12:24:00,47.1,23.4,30.23,NNW,331,6.0,6.0,39,0.00,CLR,,0.00,WeatherDisplay:10.37,2013-03-29 16:24:00,
2013-03-29 12:29:00,46.9,23.2,30.23,North,360,3.5,3.5,39,0.00,CLR,,0.00,WeatherDisplay:10.37,2013-03-29 16:29:00,
2013-03-29 12:34:00,46.5,22.8,30.23,NNE,29,3.5,3.5,39,0.00,CLR,,0.00,WeatherDisplay:10.37,2013-03-29 16:34:00,
2013-03-29 12:39:00,46.9,23.2,30.23,SW,229,4.6,4.6,39,0.00,CLR,,0.00,WeatherDisplay:10.37,2013-03-29 16:39:00,
2013-03-29 12:44:00,46.5,22.8,30.22,WSW,249,3.5,3.5,39,0.00,CLR,,0.00,WeatherDisplay:10.37,2013-03-29 16:44:00,
2013-03-29 12:49:00,47.0,23.9,30.22,WNW,303,3.5,3.5,40,0.00,CLR,,0.00,WeatherDisplay:10.37,2013-03-29 16:49:00,
2013-03-29 12:54:00,47.4,24.3,30.22,NNE,28,3.5,3.5,40,0.00,CLR,,0.00,WeatherDisplay:10.37,2013-03-29 16:54:00,
2013-03-29 13:00:00,48.1,24.3,30.22,SW,226,7.0,7.0,39,0.00,CLR,,0.00,WeatherDisplay:10.37,2013-03-29 17:00:00,
2013-03-29 13:05:00,47.8,22.8,30.22,WSW,253,12.7,12.7,37,0.00,CLR,,0.00,WeatherDisplay:10.37,2013-03-29 17:05:00,
2013-03-29 13:10:00,47.1,22.8,30.22,South,190,3.5,3.5,38,0.00,CLR,,0.00,WeatherDisplay:10.37,2013-03-29 17:10:00,
2013-03-29 13:15:00,46.7,24.2,30.22,WSW,240,4.6,4.6,41,0.00,CLR,,0.00,WeatherDisplay:10.37,2013-03-29 17:15:00,
2013-03-29 13:20:00,47.1,24.0,30.22,West,277,3.5,3.5,40,0.00,CLR,,0.00,WeatherDisplay:10.37,2013-03-29 17:20:00,
2013-03-29 13:25:00,47.8,24.0,30.22,SSW,209,7.0,7.0,39,0.00,CLR,,0.00,WeatherDisplay:10.37,2013-03-29 17:25:00,
2013-03-29 13:30:00,48.2,25.6,30.21,SW,216,0.0,0.0,41,0.00,CLR,,0.00,WeatherDisplay:10.37,2013-03-29 17:30:00,
2013-03-29 13:35:00,48.2,23.7,30.21,West,281,6.9,6.9,38,0.00,CLR,,0.00,WeatherDisplay:10.37,2013-03-29 17:35:00,
2013-03-29 13:40:00,48.0,23.6,30.21,WSW,254,10.4,10.4,38,0.00,CLR,,0.00,WeatherDisplay:10.37,2013-03-29 17:40:00,
2013-03-29 13:45:00,47.8,23.4,30.21,West,259,6.9,6.9,38,0.00,CLR,,0.00,WeatherDisplay:10.37,2013-03-29 17:45:00,
2013-03-29 13:50:00,47.6,23.8,30.21,West,259,5.8,5.8,39,0.00,CLR,,0.00,WeatherDisplay:10.37,2013-03-29 17:50:00,
2013-03-29 13:55:00,47.6,23.8,30.21,WSW,238,4.0,4.0,39,0.00,CLR,,0.00,WeatherDisplay:10.37,2013-03-29 17:55:00,
2013-03-29 14:00:00,47.8,23.4,30.20,SW,214,9.2,9.2,38,0.00,CLR,,0.00,WeatherDisplay:10.37,2013-03-29 18:00:00,
2013-03-29 14:05:00,48.5,24.6,30.20,West,267,4.6,4.6,39,0.00,CLR,,0.00,WeatherDisplay:10.37,2013-03-29 18:05:00,
2013-03-29 14:10:00,48.9,23.7,30.20,West,267,7.0,7.0,37,0.00,CLR,,0.00,WeatherDisplay:10.37,2013-03-29 18:10:00,
2013-03-29 14:15:00,48.9,23.7,30.20,NW,321,4.6,4.6,37,0.00,CLR,,0.00,WeatherDisplay:10.37,2013-03-29 18:15:00,
2013-03-29 14:20:00,48.7,22.9,30.20,SW,236,15.0,15.0,36,0.00,CLR,,0.00,WeatherDisplay:10.37,2013-03-29 18:20:00,
2013-03-29 14:25:00,48.4,23.9,30.19,SW,215,3.5,3.5,38,0.00,CLR,,0.00,WeatherDisplay:10.37,2013-03-29 18:25:00,
2013-03-29 14:30:00,48.3,23.2,30.19,WSW,237,11.5,11.5,37,0.00,CLR,,0.00,WeatherDisplay:10.37,2013-03-29 18:30:00,
2013-03-29 14:35:00,48.7,23.6,30.19,SW,232,11.0,11.0,37,0.00,CLR,,0.00,WeatherDisplay:10.37,2013-03-29 18:35:00,
2013-03-29 14:40:00,49.1,23.3,30.19,WSW,246,9.2,9.2,36,0.00,CLR,,0.00,WeatherDisplay:10.37,2013-03-29 18:40:00,
2013-03-29 14:46:00,49.6,24.4,30.18,NW,315,3.5,3.5,37,0.00,CLR,,0.00,WeatherDisplay:10.37,2013-03-29 18:46:00,
2013-03-29 14:51:00,49.5,23.6,30.18,WSW,248,11.5,11.5,36,0.00,CLR,,0.00,WeatherDisplay:10.37,2013-03-29 18:51:00,
2013-03-29 14:57:00,49.1,23.3,30.18,WSW,244,6.9,6.9,36,0.00,CLR,,0.00,WeatherDisplay:10.37,2013-03-29 18:57:00,
2013-03-29 15:02:00,49.7,24.5,30.18,SSW,206,11.0,11.0,37,0.00,CLR,,0.00,WeatherDisplay:10.37,2013-03-29 19:02:00,
2013-03-29 15:07:00,49.6,24.4,30.18,SW,234,12.0,12.0,37,0.00,CLR,,0.00,WeatherDisplay:10.37,2013-03-29 19:07:00,
2013-03-29 15:13:00,49.7,23.8,30.18,SW,225,6.0,6.0,36,0.00,CLR,,0.00,WeatherDisplay:10.37,2013-03-29 19:13:00,
2013-03-29 15:18:00,49.5,24.3,30.18,SSW,212,9.2,9.2,37,0.00,CLR,,0.00,WeatherDisplay:10.37,2013-03-29 19:18:00,
2013-03-29 15:23:00,50.0,24.1,30.17,West,261,0.0,0.2,36,0.00,CLR,,0.00,WeatherDisplay:10.37,2013-03-29 19:23:00,
2013-03-29 15:28:00,50.2,24.9,30.18,South,184,12.7,12.7,37,0.00,CLR,,0.00,WeatherDisplay:10.37,2013-03-29 19:28:00,
2013-03-29 15:33:00,49.6,24.4,30.18,West,277,4.6,4.6,37,0.00,CLR,,0.00,WeatherDisplay:10.37,2013-03-29 19:33:00,
2013-03-29 15:38:00,49.2,24.0,30.18,SW,230,11.5,11.5,37,0.00,CLR,,0.00,WeatherDisplay:10.37,2013-03-29 19:38:00,
2013-03-29 15:43:00,49.4,24.8,30.18,SW,236,3.5,3.5,38,0.00,CLR,,0.00,WeatherDisplay:10.37,2013-03-29 19:43:00,
2013-03-29 15:48:00,49.6,25.0,30.17,SW,214,5.0,5.0,38,0.00,CLR,,0.00,WeatherDisplay:10.37,2013-03-29 19:48:00,
2013-03-29 15:53:00,49.7,25.7,30.17,SW,236,8.1,8.1,39,0.00,CLR,,0.00,WeatherDisplay:10.37,2013-03-29 19:53:00,
2013-03-29 15:58:00,49.9,24.6,30.17,West,278,11.0,11.0,37,0.00,CLR,,0.00,WeatherDisplay:10.37,2013-03-29 19:58:00,
2013-03-29 16:03:00,49.8,23.9,30.17,SW,234,2.3,2.3,36,0.00,CLR,,0.00,WeatherDisplay:10.37,2013-03-29 20:03:00,
2013-03-29 16:08:00,50.0,23.4,30.17,WSW,244,10.4,10.4,35,0.00,CLR,,0.00,WeatherDisplay:10.37,2013-03-29 20:08:00,
2013-03-29 16:13:00,50.3,24.3,30.17,WSW,256,11.5,11.5,36,0.00,CLR,,0.00,WeatherDisplay:10.37,2013-03-29 20:13:00,
2013-03-29 16:18:00,50.5,23.8,30.17,West,275,9.2,9.2,35,0.00,CLR,,0.00,WeatherDisplay:10.37,2013-03-29 20:18:00,
2013-03-29 16:23:00,50.6,23.9,30.16,NNW,348,4.6,4.6,35,0.00,CLR,,0.00,WeatherDisplay:10.37,2013-03-29 20:23:00,
2013-03-29 16:28:00,51.0,25.0,30.16,SW,232,5.8,5.8,36,0.00,CLR,,0.00,WeatherDisplay:10.37,2013-03-29 20:28:00,
2013-03-29 16:33:00,50.4,25.1,30.16,SSW,207,6.9,6.9,37,0.00,CLR,,0.00,WeatherDisplay:10.37,2013-03-29 20:33:00,
2013-03-29 16:38:00,51.0,25.0,30.16,South,191,7.0,7.0,36,0.00,CLR,,0.00,WeatherDisplay:10.37,2013-03-29 20:38:00,
2013-03-29 16:43:00,51.1,25.0,30.16,WSW,237,10.4,10.4,36,0.00,CLR,,0.00,WeatherDisplay:10.37,2013-03-29 20:43:00,
2013-03-29 16:48:00,50.7,24.7,30.16,WSW,246,10.4,10.4,36,0.00,CLR,,0.00,WeatherDisplay:10.37,2013-03-29 20:48:00,
2013-03-29 16:53:00,50.2,24.2,30.16,SW,234,11.5,11.5,36,0.00,CLR,,0.00,WeatherDisplay:10.37,2013-03-29 20:53:00,
2013-03-29 16:58:00,49.6,23.0,30.16,SSW,202,6.9,6.9,35,0.00,CLR,,0.00,WeatherDisplay:10.37,2013-03-29 20:58:00,
2013-03-29 17:03:00,49.4,23.5,30.16,WSW,252,1.1,1.1,36,0.00,CLR,,0.00,WeatherDisplay:10.37,2013-03-29 21:03:00,
2013-03-29 17:08:00,49.2,23.4,30.16,WSW,242,3.5,3.5,36,0.00,CLR,,0.00,WeatherDisplay:10.37,2013-03-29 21:08:00,
2013-03-29 17:13:00,49.3,23.4,30.16,WSW,246,3.5,3.5,36,0.00,CLR,,0.00,WeatherDisplay:10.37,2013-03-29 21:13:00,
2013-03-29 17:18:00,50.0,24.1,30.16,WSW,248,4.0,4.0,36,0.00,CLR,,0.00,WeatherDisplay:10.37,2013-03-29 21:18:00,
2013-03-29 17:23:00,50.4,23.7,30.16,WSW,252,5.8,5.8,35,0.00,CLR,,0.00,WeatherDisplay:10.37,2013-03-29 21:23:00,
2013-03-29 17:28:00,50.5,24.5,30.16,SW,214,2.3,2.3,36,0.00,CLR,,0.00,WeatherDisplay:10.37,2013-03-29 21:28:00,
2013-03-29 17:33:00,50.6,24.6,30.16,WNW,284,13.8,13.8,36,0.00,CLR,,0.00,WeatherDisplay:10.37,2013-03-29 21:33:00,
2013-03-29 17:38:00,50.0,24.1,30.16,WSW,252,6.9,6.9,36,0.00,CLR,,0.00,WeatherDisplay:10.37,2013-03-29 21:38:00,
2013-03-29 17:43:00,49.5,23.6,30.16,SW,229,2.3,2.3,36,0.00,CLR,,0.00,WeatherDisplay:10.37,2013-03-29 21:43:00,
2013-03-29 17:48:00,49.2,23.4,30.16,WSW,240,3.5,3.5,36,0.00,CLR,,0.00,WeatherDisplay:10.37,2013-03-29 21:48:00,
2013-03-29 17:53:00,48.9,23.7,30.16,SW,215,3.5,3.5,37,0.00,CLR,,0.00,WeatherDisplay:10.37,2013-03-29 21:53:00,
2013-03-29 17:58:00,49.0,23.8,30.16,SSW,211,3.5,3.5,37,0.00,CLR,,0.00,WeatherDisplay:10.37,2013-03-29 21:58:00,
2013-03-29 18:03:00,49.6,24.4,30.16,SW,215,1.0,0.0,37,0.00,CLR,,0.00,WeatherDisplay:10.37,2013-03-29 22:03:00,
2013-03-29 18:08:00,50.1,24.2,30.15,SW,215,3.0,3.0,36,0.00,CLR,,0.00,WeatherDisplay:10.37,2013-03-29 22:08:00,
2013-03-29 18:13:00,50.6,23.9,30.16,SW,214,1.0,1.0,35,0.00,CLR,,0.00,WeatherDisplay:10.37,2013-03-29 22:13:00,
2013-03-29 18:18:00,50.8,24.1,30.15,SW,222,3.5,3.5,35,0.00,CLR,,0.00,WeatherDisplay:10.37,2013-03-29 22:18:00,
2013-03-29 18:23:00,50.6,23.9,30.15,WSW,248,4.6,4.6,35,0.00,CLR,,0.00,WeatherDisplay:10.37,2013-03-29 22:23:00,
2013-03-29 18:28:00,50.5,23.8,30.16,NW,319,3.5,3.5,35,0.00,CLR,,0.00,WeatherDisplay:10.37,2013-03-29 22:28:00,
2013-03-29 18:33:00,50.6,25.3,30.16,NW,319,2.3,2.3,37,0.00,CLR,,0.00,WeatherDisplay:10.37,2013-03-29 22:33:00,
2013-03-29 18:38:00,50.8,24.1,30.16,NW,315,4.0,4.0,35,0.00,CLR,,0.00,WeatherDisplay:10.37,2013-03-29 22:38:00,
2013-03-29 18:43:00,50.6,23.9,30.15,NNW,329,4.6,4.6,35,0.00,CLR,,0.00,WeatherDisplay:10.37,2013-03-29 22:43:00,
2013-03-29 18:48:00,50.1,23.5,30.16,SW,233,1.1,1.1,35,0.00,CLR,,0.00,WeatherDisplay:10.37,2013-03-29 22:48:00,
2013-03-29 18:53:00,50.1,24.2,30.16,SW,236,1.1,1.1,36,0.00,CLR,,0.00,WeatherDisplay:10.37,2013-03-29 22:53:00,
2013-03-29 18:58:00,50.2,24.2,30.16,SW,236,0.0,0.1,36,0.00,CLR,,0.00,WeatherDisplay:10.37,2013-03-29 22:58:00,
2013-03-29 19:03:00,50.2,24.2,30.15,WSW,240,0.0,0.0,36,0.00,CLR,,0.00,WeatherDisplay:10.37,2013-03-29 23:03:00,
2013-03-29 19:08:00,50.2,24.9,30.15,WSW,240,0.0,0.0,37,0.00,CLR,,0.00,WeatherDisplay:10.37,2013-03-29 23:08:00,
2013-03-29 19:13:00,50.0,24.1,30.15,West,269,1.1,1.1,36,0.00,CLR,,0.00,WeatherDisplay:10.37,2013-03-29 23:13:00,
2013-03-29 19:18:00,49.4,24.2,30.16,North,350,0.0,0.0,37,0.00,CLR,,0.00,WeatherDisplay:10.37,2013-03-29 23:18:00,
2013-03-29 19:23:00,49.1,23.9,30.16,North,350,0.0,0.0,37,0.00,CLR,,0.00,WeatherDisplay:10.37,2013-03-29 23:23:00,
2013-03-29 19:28:00,48.8,23.6,30.16,North,350,1.1,0.0,37,0.00,CLR,,0.00,WeatherDisplay:10.37,2013-03-29 23:28:00,
2013-03-29 19:33:00,48.5,24.0,30.16,North,350,1.1,0.0,38,0.00,CLR,,0.00,WeatherDisplay:10.37,2013-03-29 23:33:00,
2013-03-29 19:38:00,48.2,24.4,30.16,North,350,2.3,2.3,39,0.00,CLR,,0.00,WeatherDisplay:10.37,2013-03-29 23:38:00,
2013-03-29 19:43:00,47.9,23.5,30.16,North,350,0.0,0.0,38,0.00,CLR,,0.00,WeatherDisplay:10.37,2013-03-29 23:43:00,
2013-03-29 19:48:00,47.6,23.2,30.16,North,350,0.0,0.0,38,0.00,CLR,,0.00,WeatherDisplay:10.37,2013-03-29 23:48:00,
2013-03-29 19:53:00,47.3,22.9,30.16,North,350,0.0,0.0,38,0.00,CLR,,0.00,WeatherDisplay:10.37,2013-03-29 23:53:00,
2013-03-29 19:58:00,46.9,22.6,30.16,North,350,0.0,0.0,38,0.00,CLR,,0.00,WeatherDisplay:10.37,2013-03-29 23:58:00,
2013-03-29 20:03:00,46.4,22.8,30.16,North,350,0.0,0.0,39,0.00,CLR,,0.00,WeatherDisplay:10.37,2013-03-30 00:03:00,
2013-03-29 20:08:00,45.8,23.4,30.16,North,349,0.0,0.0,41,0.00,CLR,,0.00,WeatherDisplay:10.37,2013-03-30 00:08:00,
2013-03-29 20:13:00,45.1,23.3,30.16,North,350,0.0,0.0,42,0.00,CLR,,0.00,WeatherDisplay:10.37,2013-03-30 00:13:00,
2013-03-29 20:18:00,44.6,22.9,30.16,North,350,0.0,0.0,42,0.00,CLR,,0.00,WeatherDisplay:10.37,2013-03-30 00:18:00,
2013-03-29 20:23:00,44.1,23.0,30.16,North,349,0.0,0.0,43,0.00,CLR,,0.00,WeatherDisplay:10.37,2013-03-30 00:23:00,
2013-03-29 20:28:00,43.7,23.2,30.16,North,349,0.0,0.0,44,0.00,CLR,,0.00,WeatherDisplay:10.37,2013-03-30 00:28:00,
2013-03-29 20:33:00,43.2,22.7,30.16,North,350,0.0,0.0,44,0.00,CLR,,0.00,WeatherDisplay:10.37,2013-03-30 00:33:00,
2013-03-29 20:38:00,42.7,22.3,30.16,North,350,0.0,0.0,44,0.00,CLR,,0.00,WeatherDisplay:10.37,2013-03-30 00:38:00,
2013-03-29 20:43:00,42.3,21.9,30.16,North,350,0.0,0.0,44,0.00,CLR,,0.00,WeatherDisplay:10.37,2013-03-30 00:43:00,
2013-03-29 20:48:00,41.9,22.1,30.16,North,350,0.0,0.0,45,0.00,CLR,,0.00,WeatherDisplay:10.37,2013-03-30 00:48:00,
2013-03-29 20:53:00,41.4,21.6,30.17,North,350,0.0,0.0,45,0.00,CLR,,0.00,WeatherDisplay:10.37,2013-03-30 00:53:00,
2013-03-29 20:58:00,41.0,21.3,30.17,North,350,0.0,0.0,45,0.00,CLR,,0.00,WeatherDisplay:10.37,2013-03-30 00:58:00,
2013-03-29 21:03:00,40.6,21.4,30.17,North,349,0.0,0.0,46,0.00,CLR,,0.00,WeatherDisplay:10.37,2013-03-30 01:03:00,
2013-03-29 21:08:00,40.2,21.0,30.17,North,350,0.0,0.0,46,0.00,CLR,,0.00,WeatherDisplay:10.37,2013-03-30 01:08:00,
2013-03-29 21:13:00,39.9,20.8,30.17,North,350,0.0,0.0,46,0.00,CLR,,0.00,WeatherDisplay:10.37,2013-03-30 01:13:00,
2013-03-29 21:18:00,39.6,20.5,30.17,North,350,0.0,0.0,46,0.00,CLR,,0.00,WeatherDisplay:10.37,2013-03-30 01:18:00,
2013-03-29 21:23:00,39.3,20.7,30.18,North,349,0.0,0.0,47,0.00,CLR,,0.00,WeatherDisplay:10.37,2013-03-30 01:23:00,
2013-03-29 21:28:00,39.1,20.5,30.17,North,350,0.0,0.0,47,0.00,CLR,,0.00,WeatherDisplay:10.37,2013-03-30 01:28:00,
2013-03-29 21:33:00,38.7,20.7,30.18,North,350,0.0,0.0,48,0.00,CLR,,0.00,WeatherDisplay:10.37,2013-03-30 01:33:00,
2013-03-29 21:38:00,38.3,20.3,30.18,North,349,0.0,0.0,48,0.00,CLR,,0.00,WeatherDisplay:10.37,2013-03-30 01:38:00,
2013-03-29 21:43:00,37.9,20.4,30.18,North,349,0.0,0.0,49,0.00,CLR,,0.00,WeatherDisplay:10.37,2013-03-30 01:43:00,
2013-03-29 21:48:00,37.6,20.6,30.18,North,350,0.0,0.0,50,0.00,CLR,,0.00,WeatherDisplay:10.37,2013-03-30 01:48:00,
2013-03-29 21:53:00,37.3,20.3,30.18,North,350,0.0,0.0,50,0.00,CLR,,0.00,WeatherDisplay:10.37,2013-03-30 01:53:00,
2013-03-29 21:58:00,37.0,20.5,30.18,North,349,0.0,0.0,51,0.00,CLR,,0.00,WeatherDisplay:10.37,2013-03-30 01:58:00,
2013-03-29 22:03:00,36.7,20.3,30.18,North,350,0.0,0.0,51,0.00,CLR,,0.00,WeatherDisplay:10.37,2013-03-30 02:03:00,
2013-03-29 22:08:00,36.4,20.4,30.18,North,350,0.0,0.0,52,0.00,CLR,,0.00,WeatherDisplay:10.37,2013-03-30 02:08:00,
2013-03-29 22:13:00,36.1,20.6,30.18,North,350,1.1,0.0,53,0.00,CLR,,0.00,WeatherDisplay:10.37,2013-03-30 02:13:00,
2013-03-29 22:18:00,35.9,20.9,30.18,North,349,0.0,0.0,54,0.00,CLR,,0.00,WeatherDisplay:10.37,2013-03-30 02:18:00,
2013-03-29 22:23:00,35.7,21.1,30.19,North,350,1.1,1.1,55,0.00,CLR,,0.00,WeatherDisplay:10.37,2013-03-30 02:23:00,
2013-03-29 22:28:00,36.1,22.7,30.19,North,355,0.0,0.0,58,0.00,CLR,,0.00,WeatherDisplay:10.37,2013-03-30 02:28:00,
2013-03-29 22:33:00,36.3,23.7,30.19,North,360,1.1,0.0,60,0.00,CLR,,0.00,WeatherDisplay:10.37,2013-03-30 02:33:00,
2013-03-29 22:38:00,36.1,23.9,30.19,North,360,0.0,0.0,61,0.00,CLR,,0.00,WeatherDisplay:10.37,2013-03-30 02:38:00,
2013-03-29 22:43:00,35.9,24.1,30.19,North,360,0.0,0.0,62,0.00,CLR,,0.00,WeatherDisplay:10.37,2013-03-30 02:43:00,
2013-03-29 22:48:00,35.7,24.3,30.19,North,360,0.0,0.0,63,0.00,CLR,,0.00,WeatherDisplay:10.37,2013-03-30 02:48:00,
2013-03-29 22:53:00,35.3,24.3,30.19,North,360,0.0,0.0,64,0.00,CLR,,0.00,WeatherDisplay:10.37,2013-03-30 02:53:00,
2013-03-29 22:58:00,35.0,24.4,30.19,North,360,0.0,0.0,65,0.00,CLR,,0.00,WeatherDisplay:10.37,2013-03-30 02:58:00,
2013-03-29 23:03:00,34.7,24.5,30.19,North,360,0.0,0.0,66,0.00,CLR,,0.00,WeatherDisplay:10.37,2013-03-30 03:03:00,
2013-03-29 23:08:00,34.4,24.2,30.19,North,360,0.0,0.0,66,0.00,CLR,,0.00,WeatherDisplay:10.37,2013-03-30 03:08:00,
2013-03-29 23:13:00,34.4,24.6,30.19,North,360,0.0,0.0,67,0.00,CLR,,0.00,WeatherDisplay:10.37,2013-03-30 03:13:00,
2013-03-29 23:18:00,34.0,24.5,30.19,North,360,0.0,0.0,68,0.00,CLR,,0.00,WeatherDisplay:10.37,2013-03-30 03:18:00,
2013-03-29 23:23:00,33.4,24.0,30.19,North,360,0.0,0.0,68,0.00,CLR,,0.00,WeatherDisplay:10.37,2013-03-30 03:23:00,
2013-03-29 23:28:00,32.8,23.7,30.19,North,360,0.0,0.0,69,0.00,CLR,,0.00,WeatherDisplay:10.37,2013-03-30 03:28:00,
2013-03-29 23:33:00,32.4,23.7,30.19,North,360,0.0,0.0,70,0.00,CLR,,0.00,WeatherDisplay:10.37,2013-03-30 03:33:00,
2013-03-29 23:38:00,32.1,23.8,30.19,North,360,0.0,0.0,71,0.00,CLR,,0.00,WeatherDisplay:10.37,2013-03-30 03:38:00,
2013-03-29 23:43:00,31.8,23.5,30.19,North,360,0.0,0.0,71,0.00,CLR,,0.00,WeatherDisplay:10.37,2013-03-30 03:43:00,
2013-03-29 23:48:00,31.5,23.5,30.20,North,360,0.0,0.0,72,0.00,CLR,,0.00,WeatherDisplay:10.37,2013-03-30 03:48:00,
2013-03-29 23:53:00,31.1,23.5,30.19,North,360,0.0,0.0,73,0.00,CLR,,0.00,WeatherDisplay:10.37,2013-03-30 03:53:00,
2013-03-29 23:58:00,30.8,22.8,30.19,North,360,0.0,0.0,72,0.00,CLR,,0.00,WeatherDisplay:10.37,2013-03-30 03:58:00,